[[{"header":{"parameterUnit":"m.s-1","parameterCategory":1,"la1":30.2992,"la2":30.254,"lo1":-89.0895,"lo2":-89.0443,"dy":0.0025,"dx":0.0025,"nx":19,"ny":19,"refTime":"2026-03-12T21:00:00:Z","depth":0,"parameterNumber":2,"parameterNumberName":"U-component_of_WINDS"},"data":[0,0,0,-2.9757,-2.976,-2.9914,-2.9915,-3.0137,-3.0139,0,0,0,0,0,0,0,0,0,0,0,-2.9727,-2.9729,-2.9756,-2.9761,-2.9914,-2.9915,-3.0137,-3.0139,0,0,0,0,0,0,0,0,0,0,0,-2.9726,-2.9728,-2.9731,-2.9761,-2.9914,-2.9915,-3.0136,-3.0011,0,0,0,0,0,0,0,0,0,0,-2.9857,-2.9845,-2.9727,-2.9731,-2.9762,-2.9914,-2.9915,-3.0005,-3.0019,-3.0079,0,-3.0135,0,-3.0141,-3.0156,-3.0157,0,0,0,-2.9749,-2.9833,-2.986,-2.9731,-2.9764,-2.9914,-2.9842,-3.0012,-3.0029,-3.0098,-3.0138,-3.0146,-3.0145,-3.0158,-3.0159,-3.0537,-3.054,0,0,-2.9741,-2.9763,-2.9849,-2.9872,-2.9849,-2.9837,-2.9847,-3.0022,-3.0068,-3.0139,-3.0151,-3.0148,-3.0159,-3.0161,-3.0535,-3.0538,0,0,0,-2.9724,-2.9758,-2.978,-2.9863,-2.9889,-2.9842,-2.9853,-3.006,-3.0065,-3.0153,-3.0151,-3.0161,-3.0164,-3.0533,-3.0536,-3.0671,0,0,0,-2.9718,-2.9748,-2.9777,-2.9792,-2.9886,-2.9976,-2.9888,-3.0053,-3.0072,-3.015,-3.0161,-3.0166,-3.053,-3.0535,-3.0661,-3.0731,0,0,0,-2.9711,-2.9746,-2.9774,-2.9793,-2.9859,-2.9973,-2.9988,-3.0057,-3.0072,-3.0157,-3.0167,-3.0528,-3.0534,-3.0653,-3.0717,-3.0836,0,0,0,-2.971,-2.9893,-2.9777,-2.9979,-2.9858,-3.0055,-2.9987,-3.0132,-3.0221,-3.0162,-3.0531,-3.0536,-3.0651,-3.0709,-3.0827,-3.094,-3.0989,0,0,-2.9953,-2.9923,-3.004,-2.9941,-3.0163,-3.0029,-3.0272,-3.0333,-3.0322,-3.0466,-3.0475,-3.0664,-3.0716,-3.0834,-3.1255,-3.1295,0,0,0,-3.0124,-3.0209,-3.0263,-3.0348,-3.0398,-3.0447,-3.0468,-3.049,-3.0612,-3.04,-3.0739,-3.0769,-3.0837,-3.089,-3.0923,-3.098,-3.0561,-3.0561,-3.056,-3.0501,-3.0474,-3.0666,-3.0658,-3.0741,-3.076,-3.0825,-3.0858,-3.0809,-3.0889,-3.0932,-3.1191,-3.1254,-3.1278,-3.1338,-3.099,-3.099,-3.0991,-3.0991,-3.0853,-3.0968,-3.0896,-3.1056,-3.1027,-3.1161,-3.1186,-3.1146,-3.1267,-3.1157,-3.1216,-3.1098,-3.1322,-3.1373,-3.1001,-3.0999,-3.0998,-3.0997,-3.0996,-3.1096,-3.1147,-3.1169,-3.1288,-3.1382,-3.1367,-3.1486,-3.1456,-3.1428,-3.1486,-3.1527,-3.1525,-3.1519,-3.1508,-3.1509,-3.151,-3.151,-3.1511,-3.1512,-3.134,-3.1361,-3.1464,-3.1531,-3.158,-3.1641,-3.166,-3.1708,-3.1754,-3.1722,-3.1722,-3.1665,-3.1349,-3.127,-3.1526,-3.1523,-3.1521,-3.152,-3.1519,-3.1707,-3.1618,-3.1778,-3.1828,-3.1902,-3.1997,-3.1956,-3.2055,-3.209,-3.215,-3.2079,-3.185,-3.1818,-3.1791,-3.1726,-3.2084,-3.2084,-3.2084,-3.2084,-3.1913,-3.1892,-3.2047,-3.2128,-3.2203,-3.2181,-3.2362,-3.2378,-3.2381,-3.2401,-3.2344,-3.2255,-3.2229,-3.2212,-3.2176,-3.2114,-3.2564,-3.2564,-3.2564,-3.2136,-3.2122,-3.2282,-3.2282,-3.2337,-3.2385,-3.2554,-3.2649,-3.2634,-3.2583,-3.2415,-3.2395,-3.225,-3.2204,-3.2151,-3.2096,-3.1983,0,0]},{"header":{"parameterUnit":"m.s-1","parameterCategory":1,"la1":30.2992,"la2":30.254,"lo1":-89.0895,"lo2":-89.0443,"dy":0.0025,"dx":0.0025,"nx":19,"ny":19,"refTime":"2026-03-12T21:00:00:Z","depth":0,"parameterNumber":3,"parameterNumberName":"V-component_of_WINDS"},"data":[0,0,0,-1.3377,-1.3376,-1.3332,-1.3332,-1.3263,-1.3262,0,0,0,0,0,0,0,0,0,0,0,-1.3384,-1.3384,-1.3377,-1.3376,-1.3332,-1.3332,-1.3263,-1.3262,0,0,0,0,0,0,0,0,0,0,0,-1.3385,-1.3384,-1.3383,-1.3376,-1.3332,-1.3332,-1.3263,-1.33,0,0,0,0,0,0,0,0,0,0,-1.3344,-1.3347,-1.3384,-1.3383,-1.3375,-1.3332,-1.3332,-1.3302,-1.3298,-1.3278,0,-1.3261,0,-1.326,-1.3257,-1.3257,0,0,0,-1.3379,-1.3351,-1.3344,-1.3383,-1.3375,-1.3333,-1.3353,-1.33,-1.3295,-1.3272,-1.326,-1.3258,-1.3259,-1.3256,-1.3256,-1.3131,-1.313,0,0,-1.3381,-1.3373,-1.3347,-1.334,-1.335,-1.3354,-1.3351,-1.3297,-1.3283,-1.326,-1.3256,-1.3258,-1.3256,-1.3255,-1.3131,-1.3131,0,0,0,-1.3386,-1.3375,-1.337,-1.3343,-1.3336,-1.3353,-1.335,-1.3285,-1.3284,-1.3255,-1.3257,-1.3255,-1.3255,-1.3132,-1.3131,-1.3084,0,0,0,-1.3388,-1.3378,-1.337,-1.3365,-1.3337,-1.3311,-1.3339,-1.3288,-1.3282,-1.3258,-1.3255,-1.3254,-1.3133,-1.3132,-1.3087,-1.3061,0,0,0,-1.3389,-1.3378,-1.337,-1.3365,-1.3346,-1.3312,-1.3308,-1.3287,-1.3283,-1.3257,-1.3254,-1.3134,-1.3132,-1.309,-1.3066,-1.3022,0,0,0,-1.3387,-1.333,-1.3369,-1.3306,-1.3346,-1.3285,-1.3309,-1.3263,-1.3235,-1.3255,-1.3133,-1.3131,-1.3091,-1.3069,-1.3025,-1.298,-1.2963,0,0,-1.331,-1.3321,-1.3284,-1.3317,-1.3247,-1.3292,-1.3213,-1.3196,-1.3201,-1.3153,-1.315,-1.3086,-1.3066,-1.3023,-1.2873,-1.2858,0,0,0,-1.3256,-1.3229,-1.3213,-1.3186,-1.3172,-1.3155,-1.3151,-1.3143,-1.3103,-1.3176,-1.3061,-1.305,-1.3024,-1.3003,-1.299,-1.2966,-1.3123,-1.3123,-1.3123,-1.3133,-1.3143,-1.308,-1.3083,-1.3057,-1.3052,-1.3029,-1.3018,-1.3036,-1.3009,-1.2993,-1.2901,-1.2876,-1.2867,-1.2842,-1.2974,-1.2974,-1.2974,-1.2974,-1.3017,-1.2978,-1.3002,-1.295,-1.2958,-1.2914,-1.2905,-1.2918,-1.2875,-1.2915,-1.2893,-1.2931,-1.2851,-1.2829,-1.297,-1.2971,-1.2971,-1.2972,-1.2972,-1.2933,-1.2916,-1.2909,-1.2868,-1.2836,-1.2841,-1.2797,-1.2808,-1.2818,-1.2796,-1.2777,-1.2778,-1.2775,-1.2787,-1.2787,-1.2787,-1.2787,-1.2786,-1.2786,-1.2847,-1.2841,-1.2804,-1.2782,-1.2764,-1.2742,-1.2734,-1.2715,-1.2697,-1.2707,-1.2707,-1.2723,-1.2844,-1.2871,-1.2781,-1.2782,-1.2783,-1.2783,-1.2783,-1.2717,-1.2748,-1.2691,-1.2673,-1.2645,-1.2609,-1.2624,-1.2584,-1.2571,-1.2547,-1.2569,-1.2659,-1.2669,-1.2679,-1.27,-1.2571,-1.2571,-1.2571,-1.2571,-1.2643,-1.265,-1.2592,-1.2561,-1.2533,-1.2539,-1.2468,-1.246,-1.2456,-1.2447,-1.2468,-1.25,-1.251,-1.2514,-1.2527,-1.2547,-1.2382,-1.2382,-1.2382,-1.256,-1.2565,-1.2504,-1.2503,-1.2482,-1.2461,-1.2393,-1.2353,-1.2356,-1.2374,-1.2438,-1.2446,-1.2497,-1.2515,-1.2531,-1.2552,-1.2589,0,0]}]]